Time,TemperatureF,DewpointF,PressureIn,WindDirection,WindDirectionDegrees,WindSpeedMPH,WindSpeedGustMPH,Humidity,HourlyPrecipIn,Conditions,Clouds,dailyrainin,SoftwareType,DateUTC
2013-01-01 00:02:00,30.9,23.5,29.86,South,187,4.0,5.0,74,0.00,,,0.00,meteohub,2013-01-01 05:02:00,
2013-01-01 00:03:00,30.9,23.9,29.85,SSW,204,6.0,6.0,75,0.00,,,0.00,meteohub,2013-01-01 05:03:00,
2013-01-01 00:04:00,31.3,23.9,29.85,ENE,77,0.0,5.0,74,0.00,,,0.00,meteohub,2013-01-01 05:04:00,
2013-01-01 00:09:00,31.5,24.1,29.85,ESE,110,0.0,7.0,74,0.00,,,0.00,meteohub,2013-01-01 05:09:00,
2013-01-01 00:14:00,31.3,23.9,29.85,ENE,75,0.0,7.0,74,0.00,,,0.00,meteohub,2013-01-01 05:14:00,
2013-01-01 00:19:00,30.9,23.9,29.85,ESE,123,0.0,5.0,75,0.00,,,0.00,meteohub,2013-01-01 05:19:00,
2013-01-01 00:25:00,30.9,23.9,29.85,SW,229,0.0,3.0,75,0.00,,,0.00,meteohub,2013-01-01 05:25:00,
2013-01-01 00:30:00,30.9,23.9,29.86,East,89,0.0,4.0,75,0.00,,,0.00,meteohub,2013-01-01 05:30:00,
2013-01-01 00:35:00,30.9,23.9,29.85,SE,129,0.0,7.0,75,0.00,,,0.00,meteohub,2013-01-01 05:35:00,
2013-01-01 00:40:00,30.7,24.1,29.85,NE,49,4.0,7.0,76,0.00,,,0.00,meteohub,2013-01-01 05:40:00,
2013-01-01 00:45:00,30.9,24.3,29.86,NE,54,8.0,8.0,76,0.00,,,0.00,meteohub,2013-01-01 05:45:00,
2013-01-01 00:50:00,31.3,24.3,29.86,West,270,0.0,4.0,75,0.00,,,0.00,meteohub,2013-01-01 05:50:00,
2013-01-01 00:55:00,31.8,24.8,29.85,ENE,57,4.0,8.0,75,0.00,,,0.00,meteohub,2013-01-01 05:55:00,
2013-01-01 01:00:00,32.2,25.2,29.85,NNE,17,5.0,13.0,75,0.00,,,0.00,meteohub,2013-01-01 06:00:00,
2013-01-01 01:05:00,32.4,25.0,29.86,SSE,148,1.0,19.0,74,0.00,,,0.00,meteohub,2013-01-01 06:05:00,
2013-01-01 01:10:00,32.4,25.3,29.86,East,81,1.0,19.0,75,0.00,,,0.00,meteohub,2013-01-01 06:10:00,
2013-01-01 01:16:00,32.4,25.3,29.86,NE,50,0.0,19.0,75,0.00,,,0.00,meteohub,2013-01-01 06:16:00,
2013-01-01 01:21:00,32.4,25.0,29.86,SE,142,4.0,15.0,74,0.00,,,0.00,meteohub,2013-01-01 06:21:00,
2013-01-01 01:26:00,32.4,25.3,29.85,NE,49,6.0,15.0,75,0.00,,,0.00,meteohub,2013-01-01 06:26:00,
2013-01-01 01:31:00,32.4,25.0,29.85,ESE,103,0.0,15.0,74,0.00,,,0.00,meteohub,2013-01-01 06:31:00,
2013-01-01 01:36:00,32.5,25.2,29.85,ESE,108,2.0,14.0,74,0.00,,,0.00,meteohub,2013-01-01 06:36:00,
2013-01-01 01:41:00,32.5,25.2,29.84,ENE,76,0.0,20.0,74,0.00,,,0.00,meteohub,2013-01-01 06:41:00,
2013-01-01 01:46:00,32.4,25.3,29.84,ENE,63,1.0,20.0,75,0.00,,,0.00,meteohub,2013-01-01 06:46:00,
2013-01-01 01:51:00,32.2,25.2,29.85,SE,130,2.0,20.0,75,0.00,,,0.00,meteohub,2013-01-01 06:51:00,
2013-01-01 01:56:00,32.2,25.5,29.85,ENE,59,5.0,7.0,76,0.00,,,0.00,meteohub,2013-01-01 06:56:00,
2013-01-01 02:01:00,32.2,25.5,29.85,East,85,2.0,11.0,76,0.00,,,0.00,meteohub,2013-01-01 07:01:00,
2013-01-01 02:07:00,32.2,25.2,29.84,ENE,59,4.0,16.0,75,0.00,,,0.00,meteohub,2013-01-01 07:07:00,
2013-01-01 02:12:00,32.2,25.2,29.85,East,87,1.0,16.0,75,0.00,,,0.00,meteohub,2013-01-01 07:12:00,
2013-01-01 02:17:00,32.2,25.2,29.84,SE,143,3.0,16.0,75,0.00,,,0.00,meteohub,2013-01-01 07:17:00,
2013-01-01 02:22:00,32.2,25.2,29.85,East,100,0.0,14.0,75,0.00,,,0.00,meteohub,2013-01-01 07:22:00,
2013-01-01 02:27:00,32.2,25.5,29.84,ENE,71,0.0,14.0,76,0.00,,,0.00,meteohub,2013-01-01 07:27:00,
2013-01-01 02:32:00,32.2,25.5,29.84,NE,35,2.0,13.0,76,0.00,,,0.00,meteohub,2013-01-01 07:32:00,
2013-01-01 02:37:00,32.2,25.5,29.84,East,90,1.0,13.0,76,0.00,,,0.00,meteohub,2013-01-01 07:37:00,
2013-01-01 02:42:00,32.2,25.5,29.84,East,93,0.0,11.0,76,0.00,,,0.00,meteohub,2013-01-01 07:42:00,
2013-01-01 02:47:00,32.2,25.5,29.83,East,85,0.0,11.0,76,0.00,,,0.00,meteohub,2013-01-01 07:47:00,
2013-01-01 02:52:00,32.2,25.5,29.83,NE,53,2.0,11.0,76,0.00,,,0.00,meteohub,2013-01-01 07:52:00,
2013-01-01 02:57:00,32.2,25.2,29.84,NNW,339,0.0,11.0,75,0.00,,,0.00,meteohub,2013-01-01 07:57:00,
2013-01-01 03:02:00,32.2,25.5,29.83,East,95,0.0,9.0,76,0.00,,,0.00,meteohub,2013-01-01 08:02:00,
2013-01-01 03:07:00,32.2,25.5,29.85,East,85,0.0,8.0,76,0.00,,,0.00,meteohub,2013-01-01 08:07:00,
2013-01-01 03:12:00,32.2,25.2,29.86,ESE,106,0.0,9.0,75,0.00,,,0.00,meteohub,2013-01-01 08:12:00,
2013-01-01 03:17:00,32.4,25.3,29.85,ENE,65,1.0,14.0,75,0.00,,,0.00,meteohub,2013-01-01 08:17:00,
2013-01-01 03:22:00,32.4,25.3,29.85,ENE,75,1.0,22.0,75,0.00,,,0.00,meteohub,2013-01-01 08:22:00,
2013-01-01 03:27:00,32.2,25.5,29.85,ENE,63,5.0,22.0,76,0.00,,,0.00,meteohub,2013-01-01 08:27:00,
2013-01-01 03:32:00,32.2,25.5,29.84,ENE,77,1.0,9.0,76,0.00,,,0.00,meteohub,2013-01-01 08:32:00,
2013-01-01 03:37:00,32.2,24.8,29.84,East,81,0.0,9.0,74,0.00,,,0.00,meteohub,2013-01-01 08:37:00,
2013-01-01 03:42:00,32.4,24.6,29.84,NW,312,1.0,16.0,73,0.00,,,0.00,meteohub,2013-01-01 08:42:00,
2013-01-01 03:47:00,32.4,24.6,29.84,ENE,59,0.0,16.0,73,0.00,,,0.00,meteohub,2013-01-01 08:47:00,
2013-01-01 03:52:00,32.4,24.6,29.84,SSW,195,3.0,16.0,73,0.00,,,0.00,meteohub,2013-01-01 08:52:00,
2013-01-01 03:57:00,32.4,25.0,29.84,East,101,2.0,12.0,74,0.00,,,0.00,meteohub,2013-01-01 08:57:00,
2013-01-01 04:02:00,32.4,24.6,29.85,ENE,57,2.0,12.0,73,0.00,,,0.00,meteohub,2013-01-01 09:02:00,
2013-01-01 04:07:00,32.4,25.0,29.85,ESE,106,2.0,11.0,74,0.00,,,0.00,meteohub,2013-01-01 09:07:00,
2013-01-01 04:12:00,32.4,25.0,29.85,ESE,123,2.0,11.0,74,0.00,,,0.00,meteohub,2013-01-01 09:12:00,
2013-01-01 04:17:00,32.5,24.3,29.84,ENE,75,0.0,13.0,71,0.00,,,0.00,meteohub,2013-01-01 09:17:00,
2013-01-01 04:22:00,32.5,24.4,29.85,ENE,60,5.0,13.0,72,0.00,,,0.00,meteohub,2013-01-01 09:22:00,
2013-01-01 04:27:00,32.5,24.3,29.83,ENE,71,1.0,13.0,71,0.00,,,0.00,meteohub,2013-01-01 09:27:00,
2013-01-01 04:32:00,32.5,23.9,29.84,ENE,70,2.0,13.0,70,0.00,,,0.00,meteohub,2013-01-01 09:32:00,
2013-01-01 04:37:00,32.5,24.3,29.84,East,79,0.0,13.0,71,0.00,,,0.00,meteohub,2013-01-01 09:37:00,
2013-01-01 04:42:00,32.5,24.3,29.85,ENE,78,0.0,18.0,71,0.00,,,0.00,meteohub,2013-01-01 09:42:00,
2013-01-01 04:47:00,32.4,23.7,29.85,NE,38,1.0,18.0,70,0.00,,,0.00,meteohub,2013-01-01 09:47:00,
2013-01-01 04:52:00,32.4,24.1,29.83,NNE,19,3.0,10.0,71,0.00,,,0.00,meteohub,2013-01-01 09:52:00,
2013-01-01 04:57:00,32.2,23.9,29.84,NE,46,5.0,11.0,71,0.00,,,0.00,meteohub,2013-01-01 09:57:00,
2013-01-01 05:02:00,32.2,23.5,29.84,East,82,0.0,11.0,70,0.00,,,0.00,meteohub,2013-01-01 10:02:00,
2013-01-01 05:07:00,32.2,23.5,29.84,ENE,75,2.0,11.0,70,0.00,,,0.00,meteohub,2013-01-01 10:07:00,
2013-01-01 05:12:00,32.2,23.2,29.86,SW,214,9.0,14.0,69,0.00,,,0.00,meteohub,2013-01-01 10:12:00,
2013-01-01 05:17:00,32.4,23.4,29.85,ENE,70,0.0,29.0,69,0.00,,,0.00,meteohub,2013-01-01 10:17:00,
2013-01-01 05:22:00,32.2,22.8,29.85,SW,228,5.0,29.0,68,0.00,,,0.00,meteohub,2013-01-01 10:22:00,
2013-01-01 05:27:00,32.4,22.6,29.84,SE,134,3.0,29.0,67,0.00,,,0.00,meteohub,2013-01-01 10:27:00,
2013-01-01 05:32:00,32.2,22.5,29.84,NE,44,1.0,16.0,67,0.00,,,0.00,meteohub,2013-01-01 10:32:00,
2013-01-01 05:37:00,32.2,22.5,29.85,NE,34,5.0,16.0,67,0.00,,,0.00,meteohub,2013-01-01 10:37:00,
2013-01-01 05:42:00,31.8,22.1,29.85,SSE,165,3.0,16.0,67,0.00,,,0.00,meteohub,2013-01-01 10:42:00,
2013-01-01 05:47:00,31.8,22.1,29.85,ENE,60,0.0,16.0,67,0.00,,,0.00,meteohub,2013-01-01 10:47:00,
2013-01-01 05:52:00,31.8,22.1,29.85,ENE,77,1.0,20.0,67,0.00,,,0.00,meteohub,2013-01-01 10:52:00,
2013-01-01 05:57:00,31.6,21.6,29.85,ENE,71,6.0,20.0,66,0.00,,,0.00,meteohub,2013-01-01 10:57:00,
2013-01-01 06:02:00,31.6,21.6,29.84,ENE,63,1.0,20.0,66,0.00,,,0.00,meteohub,2013-01-01 11:02:00,
2013-01-01 06:07:00,31.5,21.0,29.85,East,83,1.0,20.0,65,0.00,,,0.00,meteohub,2013-01-01 11:07:00,
2013-01-01 06:12:00,31.5,20.7,29.86,ENE,78,0.0,18.0,64,0.00,,,0.00,meteohub,2013-01-01 11:12:00,
2013-01-01 06:17:00,31.3,20.8,29.85,ENE,76,2.0,13.0,65,0.00,,,0.00,meteohub,2013-01-01 11:17:00,
2013-01-01 06:22:00,30.9,20.5,29.86,ENE,77,0.0,9.0,65,0.00,,,0.00,meteohub,2013-01-01 11:22:00,
2013-01-01 06:27:00,30.9,20.5,29.86,ENE,61,1.0,9.0,65,0.00,,,0.00,meteohub,2013-01-01 11:27:00,
2013-01-01 06:33:00,30.7,20.7,29.86,ENE,66,1.0,7.0,66,0.00,,,0.00,meteohub,2013-01-01 11:33:00,
2013-01-01 06:38:00,30.7,20.7,29.86,ENE,68,0.0,9.0,66,0.00,,,0.00,meteohub,2013-01-01 11:38:00,
2013-01-01 06:43:00,30.7,20.3,29.86,ESE,115,0.0,9.0,65,0.00,,,0.00,meteohub,2013-01-01 11:43:00,
2013-01-01 06:48:00,30.7,20.7,29.86,NNE,33,6.0,13.0,66,0.00,,,0.00,meteohub,2013-01-01 11:48:00,
2013-01-01 06:53:00,30.7,20.7,29.86,ENE,70,1.0,13.0,66,0.00,,,0.00,meteohub,2013-01-01 11:53:00,
2013-01-01 06:58:00,30.9,20.8,29.86,ENE,57,1.0,13.0,66,0.00,,,0.00,meteohub,2013-01-01 11:58:00,
2013-01-01 07:03:00,30.6,20.5,29.86,ENE,73,0.0,10.0,66,0.00,,,0.00,meteohub,2013-01-01 12:03:00,
2013-01-01 07:08:00,30.4,20.7,29.87,West,275,1.0,10.0,67,0.00,,,0.00,meteohub,2013-01-01 12:08:00,
2013-01-01 07:13:00,30.4,21.0,29.87,ENE,64,6.0,8.0,68,0.00,,,0.00,meteohub,2013-01-01 12:13:00,
2013-01-01 07:18:00,30.2,20.8,29.87,ENE,65,4.0,9.0,68,0.00,,,0.00,meteohub,2013-01-01 12:18:00,
2013-01-01 07:23:00,30.0,21.0,29.87,NE,40,0.0,9.0,69,0.00,,,0.00,meteohub,2013-01-01 12:23:00,
2013-01-01 07:28:00,30.0,21.4,29.87,East,79,0.0,9.0,70,0.00,,,0.00,meteohub,2013-01-01 12:28:00,
2013-01-01 07:33:00,29.8,21.2,29.87,NE,40,0.0,8.0,70,0.00,,,0.00,meteohub,2013-01-01 12:33:00,
2013-01-01 07:39:00,30.0,21.4,29.87,ENE,63,0.0,6.0,70,0.00,,,0.00,meteohub,2013-01-01 12:39:00,
2013-01-01 07:44:00,30.0,21.7,29.87,NE,54,2.0,6.0,71,0.00,,,0.00,meteohub,2013-01-01 12:44:00,
2013-01-01 07:49:00,30.0,21.7,29.86,ENE,60,1.0,9.0,71,0.00,,,0.00,meteohub,2013-01-01 12:49:00,
2013-01-01 07:54:00,30.0,21.7,29.86,NE,55,0.0,10.0,71,0.00,,,0.00,meteohub,2013-01-01 12:54:00,
2013-01-01 07:59:00,30.0,21.7,29.86,ENE,67,7.0,10.0,71,0.00,,,0.00,meteohub,2013-01-01 12:59:00,
2013-01-01 08:04:00,30.0,21.4,29.86,ENE,60,4.0,10.0,70,0.00,,,0.00,meteohub,2013-01-01 13:04:00,
2013-01-01 08:09:00,29.8,21.2,29.86,ENE,67,0.0,10.0,70,0.00,,,0.00,meteohub,2013-01-01 13:09:00,
2013-01-01 08:14:00,30.0,21.4,29.86,ENE,67,5.0,9.0,70,0.00,,,0.00,meteohub,2013-01-01 13:14:00,
2013-01-01 08:19:00,30.0,21.0,29.86,SW,235,4.0,9.0,69,0.00,,,0.00,meteohub,2013-01-01 13:19:00,
2013-01-01 08:24:00,30.2,21.2,29.86,North,352,2.0,11.0,69,0.00,,,0.00,meteohub,2013-01-01 13:24:00,
2013-01-01 08:29:00,30.4,21.0,29.87,NE,34,0.0,11.0,68,0.00,,,0.00,meteohub,2013-01-01 13:29:00,
2013-01-01 08:34:00,30.4,21.7,29.88,WSW,246,4.0,11.0,70,0.00,,,0.00,meteohub,2013-01-01 13:34:00,
2013-01-01 08:39:00,30.6,20.8,29.88,SW,215,10.0,11.0,67,0.00,,,0.00,meteohub,2013-01-01 13:39:00,
2013-01-01 08:44:00,30.9,21.6,29.88,East,84,0.0,13.0,68,0.00,,,0.00,meteohub,2013-01-01 13:44:00,
2013-01-01 08:50:00,30.9,21.2,29.87,East,87,0.0,15.0,67,0.00,,,0.00,meteohub,2013-01-01 13:50:00,
2013-01-01 08:55:00,30.9,21.6,29.87,South,191,4.0,19.0,68,0.00,,,0.00,meteohub,2013-01-01 13:55:00,
2013-01-01 09:00:00,30.7,21.4,29.87,NE,37,5.0,19.0,68,0.00,,,0.00,meteohub,2013-01-01 14:00:00,
2013-01-01 09:05:00,30.6,21.6,29.87,West,262,1.0,19.0,69,0.00,,,0.00,meteohub,2013-01-01 14:05:00,
2013-01-01 09:10:00,30.6,21.9,29.88,NE,54,2.0,5.0,70,0.00,,,0.00,meteohub,2013-01-01 14:10:00,
2013-01-01 09:15:00,30.6,21.9,29.88,ENE,71,0.0,6.0,70,0.00,,,0.00,meteohub,2013-01-01 14:15:00,
2013-01-01 09:20:00,30.4,22.1,29.89,ENE,71,2.0,11.0,71,0.00,,,0.00,meteohub,2013-01-01 14:20:00,
2013-01-01 09:25:00,30.4,22.1,29.90,ENE,76,2.0,11.0,71,0.00,,,0.00,meteohub,2013-01-01 14:25:00,
2013-01-01 09:30:00,30.4,21.0,29.90,East,85,1.0,11.0,68,0.00,,,0.00,meteohub,2013-01-01 14:30:00,
2013-01-01 09:35:00,30.4,21.0,29.90,ENE,73,0.0,16.0,68,0.00,,,0.00,meteohub,2013-01-01 14:35:00,
2013-01-01 09:40:00,30.4,19.9,29.90,ENE,68,0.0,16.0,65,0.00,,,0.00,meteohub,2013-01-01 14:40:00,
2013-01-01 09:45:00,30.6,20.1,29.90,East,90,0.0,15.0,65,0.00,,,0.00,meteohub,2013-01-01 14:45:00,
2013-01-01 09:51:00,30.6,19.4,29.91,East,81,0.0,15.0,63,0.00,,,0.00,meteohub,2013-01-01 14:51:00,
2013-01-01 09:56:00,30.6,19.8,29.90,ENE,63,7.0,19.0,64,0.00,,,0.00,meteohub,2013-01-01 14:56:00,
2013-01-01 10:01:00,30.6,19.4,29.91,ENE,78,0.0,19.0,63,0.00,,,0.00,meteohub,2013-01-01 15:01:00,
2013-01-01 10:06:00,30.9,19.8,29.91,ESE,102,1.0,19.0,63,0.00,,,0.00,meteohub,2013-01-01 15:06:00,
2013-01-01 10:11:00,30.9,19.8,29.90,ENE,75,1.0,11.0,63,0.00,,,0.00,meteohub,2013-01-01 15:11:00,
2013-01-01 10:16:00,30.9,19.8,29.89,ENE,63,7.0,9.0,63,0.00,,,0.00,meteohub,2013-01-01 15:16:00,
2013-01-01 10:21:00,31.3,20.1,29.90,NE,53,7.0,9.0,63,0.00,,,0.00,meteohub,2013-01-01 15:21:00,
2013-01-01 10:26:00,30.9,19.0,29.91,ENE,73,5.0,11.0,61,0.00,,,0.00,meteohub,2013-01-01 15:26:00,
2013-01-01 10:31:00,30.9,19.4,29.90,NE,49,5.0,11.0,62,0.00,,,0.00,meteohub,2013-01-01 15:31:00,
2013-01-01 10:36:00,30.9,19.4,29.91,ENE,58,2.0,11.0,62,0.00,,,0.00,meteohub,2013-01-01 15:36:00,
2013-01-01 10:41:00,30.7,18.9,29.91,East,89,9.0,9.0,61,0.00,,,0.00,meteohub,2013-01-01 15:41:00,
2013-01-01 10:46:00,30.7,19.2,29.91,NE,35,7.0,11.0,62,0.00,,,0.00,meteohub,2013-01-01 15:46:00,
2013-01-01 10:51:00,30.7,19.2,29.92,NE,50,4.0,12.0,62,0.00,,,0.00,meteohub,2013-01-01 15:51:00,
2013-01-01 10:56:00,30.6,19.0,29.91,ENE,67,0.0,12.0,62,0.00,,,0.00,meteohub,2013-01-01 15:56:00,
2013-01-01 11:02:00,30.6,19.4,29.91,ENE,75,0.0,12.0,63,0.00,,,0.00,meteohub,2013-01-01 16:02:00,
2013-01-01 11:07:00,30.4,18.9,29.91,SSW,202,5.0,9.0,62,0.00,,,0.00,meteohub,2013-01-01 16:07:00,
2013-01-01 11:12:00,30.4,19.2,29.91,SW,227,4.0,12.0,63,0.00,,,0.00,meteohub,2013-01-01 16:12:00,
2013-01-01 11:17:00,30.0,18.5,29.90,SE,129,1.0,23.0,62,0.00,,,0.00,meteohub,2013-01-01 16:17:00,
2013-01-01 11:22:00,30.0,19.0,29.90,ENE,62,1.0,23.0,63,0.00,,,0.00,meteohub,2013-01-01 16:22:00,
2013-01-01 11:27:00,30.0,19.0,29.89,East,80,2.0,23.0,63,0.00,,,0.00,meteohub,2013-01-01 16:27:00,
2013-01-01 11:32:00,30.2,18.3,29.89,NW,323,2.0,15.0,61,0.00,,,0.00,meteohub,2013-01-01 16:32:00,
2013-01-01 11:37:00,30.0,18.1,29.89,ENE,71,5.0,12.0,61,0.00,,,0.00,meteohub,2013-01-01 16:37:00,
2013-01-01 11:42:00,30.0,18.1,29.89,NE,53,8.0,12.0,61,0.00,,,0.00,meteohub,2013-01-01 16:42:00,
2013-01-01 11:47:00,29.8,18.0,29.89,ENE,76,1.0,12.0,61,0.00,,,0.00,meteohub,2013-01-01 16:47:00,
2013-01-01 11:52:00,30.0,17.8,29.88,ENE,75,6.0,14.0,60,0.00,,,0.00,meteohub,2013-01-01 16:52:00,
2013-01-01 11:57:00,29.8,18.0,29.87,East,88,1.0,14.0,61,0.00,,,0.00,meteohub,2013-01-01 16:57:00,
2013-01-01 12:02:00,29.8,17.2,29.86,NNE,27,6.0,14.0,59,0.00,,,0.00,meteohub,2013-01-01 17:02:00,
2013-01-01 12:07:00,30.0,17.8,29.87,ENE,72,2.0,14.0,60,0.00,,,0.00,meteohub,2013-01-01 17:07:00,
2013-01-01 12:12:00,30.4,17.8,29.87,ENE,67,1.0,15.0,59,0.00,,,0.00,meteohub,2013-01-01 17:12:00,
2013-01-01 12:17:00,30.2,17.2,29.88,NNE,32,5.0,15.0,58,0.00,,,0.00,meteohub,2013-01-01 17:17:00,
2013-01-01 12:22:00,30.0,17.1,29.88,East,85,0.0,15.0,58,0.00,,,0.00,meteohub,2013-01-01 17:22:00,
2013-01-01 12:27:00,30.4,17.4,29.88,NE,41,6.0,19.0,58,0.00,,,0.00,meteohub,2013-01-01 17:27:00,
2013-01-01 12:32:00,30.6,17.6,29.88,ENE,73,1.0,19.0,58,0.00,,,0.00,meteohub,2013-01-01 17:32:00,
2013-01-01 12:37:00,30.6,17.1,29.86,ENE,63,9.0,13.0,57,0.00,,,0.00,meteohub,2013-01-01 17:37:00,
2013-01-01 12:42:00,30.6,16.3,29.88,SSE,147,5.0,18.0,55,0.01,,,0.00,meteohub,2013-01-01 17:42:00,
2013-01-01 12:47:00,30.7,16.9,29.87,North,0,1.0,18.0,56,0.01,,,0.01,meteohub,2013-01-01 17:47:00,
2013-01-01 12:52:00,30.9,17.4,29.86,ENE,59,9.0,18.0,57,0.01,,,0.01,meteohub,2013-01-01 17:52:00,
2013-01-01 12:57:00,31.3,17.1,29.86,NNW,343,2.0,14.0,55,0.01,,,0.01,meteohub,2013-01-01 17:57:00,
2013-01-01 13:02:00,30.9,16.2,29.87,ESE,102,6.0,13.0,54,0.01,,,0.01,meteohub,2013-01-01 18:02:00,
2013-01-01 13:07:00,31.5,17.6,29.87,East,95,0.0,13.0,56,0.01,,,0.01,meteohub,2013-01-01 18:07:00,
2013-01-01 13:12:00,31.8,18.3,29.87,NNW,339,3.0,13.0,57,0.01,,,0.01,meteohub,2013-01-01 18:12:00,
2013-01-01 13:17:00,31.5,18.3,29.87,ENE,59,5.0,9.0,58,0.01,,,0.01,meteohub,2013-01-01 18:17:00,
2013-01-01 13:22:00,31.3,19.0,29.87,NNW,347,3.0,11.0,60,0.01,,,0.01,meteohub,2013-01-01 18:22:00,
2013-01-01 13:27:00,30.9,19.0,29.87,North,0,3.0,11.0,61,0.01,,,0.01,meteohub,2013-01-01 18:27:00,
2013-01-01 13:32:00,30.2,18.0,29.87,NNE,20,1.0,11.0,60,0.01,,,0.01,meteohub,2013-01-01 18:32:00,
2013-01-01 13:37:00,29.7,17.8,29.87,ENE,68,0.0,14.0,61,0.01,,,0.01,meteohub,2013-01-01 18:37:00,
2013-01-01 13:42:00,29.1,16.9,29.87,ENE,57,6.0,15.0,60,0.00,,,0.01,meteohub,2013-01-01 18:42:00,
2013-01-01 13:47:00,28.8,17.4,29.87,ENE,77,2.0,15.0,62,0.00,,,0.01,meteohub,2013-01-01 18:47:00,
2013-01-01 13:53:00,28.6,17.6,29.87,ENE,61,4.0,11.0,63,0.00,,,0.01,meteohub,2013-01-01 18:53:00,
2013-01-01 13:58:00,28.6,18.0,29.87,NNE,28,5.0,11.0,64,0.00,,,0.01,meteohub,2013-01-01 18:58:00,
2013-01-01 14:03:00,28.4,18.1,29.86,ENE,69,4.0,11.0,65,0.00,,,0.01,meteohub,2013-01-01 19:03:00,
2013-01-01 14:08:00,28.6,18.7,29.86,ENE,71,4.0,7.0,66,0.00,,,0.01,meteohub,2013-01-01 19:08:00,
2013-01-01 14:13:00,28.2,18.7,29.87,North,354,1.0,8.0,67,0.00,,,0.01,meteohub,2013-01-01 19:13:00,
2013-01-01 14:18:00,27.9,18.7,29.86,ESE,102,0.0,9.0,68,0.00,,,0.01,meteohub,2013-01-01 19:18:00,
2013-01-01 14:23:00,27.7,18.9,29.87,SSE,154,1.0,9.0,69,0.00,,,0.01,meteohub,2013-01-01 19:23:00,
2013-01-01 14:28:00,27.5,18.7,29.87,ENE,57,4.0,9.0,69,0.00,,,0.01,meteohub,2013-01-01 19:28:00,
2013-01-01 14:33:00,27.3,19.2,29.88,NE,37,4.0,9.0,71,0.00,,,0.01,meteohub,2013-01-01 19:33:00,
2013-01-01 14:38:00,27.1,19.0,29.87,NE,43,0.0,9.0,71,0.00,,,0.01,meteohub,2013-01-01 19:38:00,
2013-01-01 14:44:00,27.0,18.1,29.87,North,10,7.0,9.0,69,0.00,,,0.01,meteohub,2013-01-01 19:44:00,
2013-01-01 14:49:00,26.8,18.3,29.88,NE,50,1.0,9.0,70,0.00,,,0.01,meteohub,2013-01-01 19:49:00,
2013-01-01 14:54:00,26.8,18.0,29.88,North,350,0.0,11.0,69,0.00,,,0.01,meteohub,2013-01-01 19:54:00,
2013-01-01 14:59:00,26.8,17.6,29.88,SE,135,1.0,11.0,68,0.00,,,0.01,meteohub,2013-01-01 19:59:00,
2013-01-01 15:04:00,26.6,17.4,29.90,NNE,28,2.0,8.0,68,0.00,,,0.01,meteohub,2013-01-01 20:04:00,
2013-01-01 15:09:00,26.4,16.9,29.90,ENE,72,0.0,11.0,67,0.00,,,0.01,meteohub,2013-01-01 20:09:00,
2013-01-01 15:14:00,26.4,16.5,29.91,NE,54,6.0,11.0,66,0.00,,,0.01,meteohub,2013-01-01 20:14:00,
2013-01-01 15:19:00,26.2,16.2,29.90,ENE,66,5.0,11.0,65,0.00,,,0.01,meteohub,2013-01-01 20:19:00,
2013-01-01 15:24:00,26.1,15.3,29.91,ENE,58,5.0,11.0,63,0.00,,,0.01,meteohub,2013-01-01 20:24:00,
2013-01-01 15:29:00,25.9,15.1,29.91,NE,54,5.0,9.0,63,0.00,,,0.01,meteohub,2013-01-01 20:29:00,
2013-01-01 15:34:00,25.5,14.7,29.91,NE,42,0.0,9.0,63,0.00,,,0.01,meteohub,2013-01-01 20:34:00,
2013-01-01 15:40:00,25.5,14.4,29.91,East,86,6.0,9.0,62,0.00,,,0.01,meteohub,2013-01-01 20:40:00,
2013-01-01 15:45:00,25.5,14.7,29.91,North,2,2.0,9.0,63,0.00,,,0.01,meteohub,2013-01-01 20:45:00,
2013-01-01 15:50:00,25.3,14.2,29.91,North,359,1.0,14.0,62,0.00,,,0.01,meteohub,2013-01-01 20:50:00,
2013-01-01 15:55:00,25.2,14.0,29.91,ENE,65,4.0,15.0,62,0.00,,,0.01,meteohub,2013-01-01 20:55:00,
2013-01-01 16:00:00,25.0,13.5,29.91,NE,42,0.0,15.0,61,0.00,,,0.01,meteohub,2013-01-01 21:00:00,
2013-01-01 16:05:00,25.0,13.5,29.91,NNW,341,5.0,15.0,61,0.00,,,0.01,meteohub,2013-01-01 21:05:00,
2013-01-01 16:10:00,24.6,13.1,29.91,ENE,72,4.0,12.0,61,0.00,,,0.01,meteohub,2013-01-01 21:10:00,
2013-01-01 16:15:00,24.4,12.9,29.91,ENE,73,1.0,12.0,61,0.00,,,0.01,meteohub,2013-01-01 21:15:00,
2013-01-01 16:20:00,24.4,12.9,29.91,NE,56,6.0,10.0,61,0.00,,,0.01,meteohub,2013-01-01 21:20:00,
2013-01-01 16:25:00,24.3,12.7,29.92,NNW,341,7.0,9.0,61,0.00,,,0.01,meteohub,2013-01-01 21:25:00,
2013-01-01 16:30:00,24.1,12.6,29.92,North,354,1.0,13.0,61,0.00,,,0.01,meteohub,2013-01-01 21:30:00,
2013-01-01 16:36:00,23.9,13.1,29.92,NNW,338,0.0,13.0,63,0.00,,,0.01,meteohub,2013-01-01 21:36:00,
2013-01-01 16:41:00,23.7,12.9,29.92,ENE,69,4.0,11.0,63,0.00,,,0.01,meteohub,2013-01-01 21:41:00,
2013-01-01 16:46:00,23.5,13.1,29.92,North,354,2.0,12.0,64,0.00,,,0.01,meteohub,2013-01-01 21:46:00,
2013-01-01 16:51:00,23.5,13.5,29.93,North,0,2.0,12.0,65,0.00,,,0.01,meteohub,2013-01-01 21:51:00,
2013-01-01 16:56:00,23.4,13.3,29.93,East,94,0.0,8.0,65,0.00,,,0.01,meteohub,2013-01-01 21:56:00,
2013-01-01 17:01:00,23.4,14.0,29.92,NNE,25,4.0,11.0,67,0.00,,,0.01,meteohub,2013-01-01 22:01:00,
2013-01-01 17:06:00,23.2,14.2,29.93,ENE,63,2.0,11.0,68,0.00,,,0.01,meteohub,2013-01-01 22:06:00,
2013-01-01 17:11:00,23.2,13.8,29.93,NE,52,1.0,12.0,67,0.00,,,0.01,meteohub,2013-01-01 22:11:00,
2013-01-01 17:16:00,22.8,13.8,29.94,NNE,31,7.0,12.0,68,0.00,,,0.01,meteohub,2013-01-01 22:16:00,
2013-01-01 17:21:00,22.8,13.8,29.94,ENE,73,0.0,12.0,68,0.00,,,0.01,meteohub,2013-01-01 22:21:00,
2013-01-01 17:26:00,22.6,13.3,29.94,NE,54,6.0,13.0,67,0.00,,,0.01,meteohub,2013-01-01 22:26:00,
2013-01-01 17:31:00,22.5,12.7,29.95,NE,42,2.0,13.0,66,0.00,,,0.01,meteohub,2013-01-01 22:31:00,
2013-01-01 17:36:00,22.5,12.7,29.95,North,359,0.0,10.0,66,0.00,,,0.01,meteohub,2013-01-01 22:36:00,
2013-01-01 17:42:00,22.3,12.9,29.95,ENE,64,0.0,10.0,67,0.00,,,0.01,meteohub,2013-01-01 22:42:00,
2013-01-01 17:47:00,22.3,12.9,29.96,ENE,58,4.0,6.0,67,0.00,,,0.01,meteohub,2013-01-01 22:47:00,
2013-01-01 17:52:00,22.1,13.1,29.96,NNW,338,1.0,9.0,68,0.00,,,0.01,meteohub,2013-01-01 22:52:00,
2013-01-01 17:57:00,22.1,13.1,29.96,NNE,31,2.0,9.0,68,0.00,,,0.01,meteohub,2013-01-01 22:57:00,
2013-01-01 18:02:00,22.1,13.1,29.96,NE,49,2.0,9.0,68,0.00,,,0.01,meteohub,2013-01-01 23:02:00,
2013-01-01 18:07:00,21.9,12.9,29.96,NE,56,0.0,9.0,68,0.00,,,0.01,meteohub,2013-01-01 23:07:00,
2013-01-01 18:12:00,21.7,13.1,29.96,NE,39,6.0,8.0,69,0.00,,,0.01,meteohub,2013-01-01 23:12:00,
2013-01-01 18:17:00,21.6,12.9,29.96,ENE,59,4.0,9.0,69,0.00,,,0.01,meteohub,2013-01-01 23:17:00,
2013-01-01 18:22:00,21.4,12.7,29.97,ENE,65,8.0,9.0,69,0.00,,,0.01,meteohub,2013-01-01 23:22:00,
2013-01-01 18:27:00,21.4,12.7,29.97,NE,45,7.0,9.0,69,0.00,,,0.01,meteohub,2013-01-01 23:27:00,
2013-01-01 18:32:00,21.0,11.8,29.98,North,5,1.0,10.0,67,0.00,,,0.01,meteohub,2013-01-01 23:32:00,
2013-01-01 18:37:00,21.0,11.5,29.98,NW,314,0.0,10.0,66,0.00,,,0.01,meteohub,2013-01-01 23:37:00,
2013-01-01 18:42:00,20.8,11.3,29.98,ENE,67,0.0,10.0,66,0.00,,,0.01,meteohub,2013-01-01 23:42:00,
2013-01-01 18:47:00,20.7,10.8,29.98,North,358,1.0,9.0,65,0.00,,,0.01,meteohub,2013-01-01 23:47:00,
2013-01-01 18:52:00,20.5,10.9,29.98,NE,56,4.0,12.0,66,0.00,,,0.01,meteohub,2013-01-01 23:52:00,
2013-01-01 18:57:00,20.3,10.4,29.98,NE,38,0.0,12.0,65,0.00,,,0.01,meteohub,2013-01-01 23:57:00,
2013-01-01 19:02:00,19.9,10.0,29.98,SE,125,1.0,7.0,65,0.00,,,0.01,meteohub,2013-01-02 00:02:00,
2013-01-01 19:07:00,19.8,9.9,29.99,East,90,1.0,11.0,65,0.00,,,0.00,meteohub,2013-01-02 00:07:00,
2013-01-01 19:12:00,19.6,9.7,29.99,NE,54,2.0,11.0,65,0.00,,,0.00,meteohub,2013-01-02 00:12:00,
2013-01-01 19:17:00,19.4,9.5,29.99,NE,55,7.0,11.0,65,0.00,,,0.00,meteohub,2013-01-02 00:17:00,
2013-01-01 19:22:00,19.2,9.7,29.99,NE,56,6.0,13.0,66,0.00,,,0.00,meteohub,2013-01-02 00:22:00,
2013-01-01 19:27:00,19.0,9.5,29.99,NE,44,5.0,13.0,66,0.00,,,0.00,meteohub,2013-01-02 00:27:00,
2013-01-01 19:32:00,18.9,9.3,29.99,ENE,60,11.0,15.0,66,0.00,,,0.00,meteohub,2013-01-02 00:32:00,
2013-01-01 19:37:00,18.7,9.1,29.99,NNE,27,2.0,15.0,66,0.00,,,0.00,meteohub,2013-01-02 00:37:00,
2013-01-01 19:42:00,18.5,9.0,29.99,ENE,64,4.0,15.0,66,0.00,,,0.00,meteohub,2013-01-02 00:42:00,
2013-01-01 19:47:00,18.3,8.6,29.99,North,11,3.0,11.0,65,0.00,,,0.00,meteohub,2013-01-02 00:47:00,
2013-01-01 19:52:00,18.1,8.8,29.99,NE,39,9.0,9.0,66,0.00,,,0.00,meteohub,2013-01-02 00:52:00,
2013-01-01 19:57:00,18.1,8.4,29.99,ENE,69,5.0,10.0,65,0.00,,,0.00,meteohub,2013-01-02 00:57:00,
2013-01-01 20:02:00,18.0,8.2,29.99,North,359,4.0,10.0,65,0.00,,,0.00,meteohub,2013-01-02 01:02:00,
2013-01-01 20:07:00,18.0,8.6,29.99,NE,56,4.0,11.0,66,0.00,,,0.00,meteohub,2013-01-02 01:07:00,
2013-01-01 20:12:00,17.8,8.4,29.99,SE,144,3.0,11.0,66,0.00,,,0.00,meteohub,2013-01-02 01:12:00,
2013-01-01 20:17:00,17.4,8.4,29.98,NE,45,6.0,11.0,67,0.00,,,0.00,meteohub,2013-01-02 01:17:00,
2013-01-01 20:22:00,17.4,8.1,29.99,NNE,22,5.0,14.0,66,0.00,,,0.00,meteohub,2013-01-02 01:22:00,
2013-01-01 20:27:00,17.4,8.1,29.98,North,10,0.0,14.0,66,0.00,,,0.00,meteohub,2013-01-02 01:27:00,
2013-01-01 20:32:00,17.2,8.2,29.98,North,354,4.0,14.0,67,0.00,,,0.00,meteohub,2013-01-02 01:32:00,
2013-01-01 20:37:00,17.2,8.2,29.98,East,90,2.0,12.0,67,0.00,,,0.00,meteohub,2013-01-02 01:37:00,
2013-01-01 20:42:00,17.1,8.2,29.97,North,9,5.0,13.0,68,0.00,,,0.00,meteohub,2013-01-02 01:42:00,
2013-01-01 20:47:00,17.1,8.2,29.98,ENE,72,5.0,13.0,68,0.00,,,0.00,meteohub,2013-01-02 01:47:00,
2013-01-01 20:52:00,16.9,8.4,29.98,ENE,69,11.0,14.0,69,0.00,,,0.00,meteohub,2013-01-02 01:52:00,
2013-01-01 20:57:00,16.9,8.2,29.98,ENE,74,7.0,14.0,68,0.00,,,0.00,meteohub,2013-01-02 01:57:00,
2013-01-01 21:02:00,16.7,8.2,29.98,NE,38,8.0,14.0,69,0.00,,,0.00,meteohub,2013-01-02 02:02:00,
2013-01-01 21:07:00,16.5,8.1,29.98,East,83,2.0,13.0,69,0.00,,,0.00,meteohub,2013-01-02 02:07:00,
2013-01-01 21:12:00,16.3,7.9,29.98,East,98,0.0,13.0,69,0.00,,,0.00,meteohub,2013-01-02 02:12:00,
2013-01-01 21:17:00,16.3,7.9,29.99,East,80,4.0,12.0,69,0.00,,,0.00,meteohub,2013-01-02 02:17:00,
2013-01-01 21:22:00,16.3,7.9,29.99,ENE,63,2.0,12.0,69,0.00,,,0.00,meteohub,2013-01-02 02:22:00,
2013-01-01 21:27:00,16.2,7.7,29.99,East,91,1.0,12.0,69,0.00,,,0.00,meteohub,2013-01-02 02:27:00,
2013-01-01 21:32:00,16.2,7.7,29.99,NNE,26,6.0,11.0,69,0.00,,,0.00,meteohub,2013-01-02 02:32:00,
2013-01-01 21:37:00,16.2,7.7,29.99,ENE,71,1.0,11.0,69,0.00,,,0.00,meteohub,2013-01-02 02:37:00,
2013-01-01 21:42:00,16.0,7.7,29.99,East,81,1.0,11.0,69,0.00,,,0.00,meteohub,2013-01-02 02:42:00,
2013-01-01 21:47:00,16.0,7.7,29.99,ENE,76,0.0,11.0,69,0.00,,,0.00,meteohub,2013-01-02 02:47:00,
2013-01-01 21:52:00,15.8,7.7,29.99,North,8,3.0,7.0,70,0.00,,,0.00,meteohub,2013-01-02 02:52:00,
2013-01-01 21:57:00,15.6,7.5,29.99,NE,50,4.0,8.0,70,0.00,,,0.00,meteohub,2013-01-02 02:57:00,
2013-01-01 22:02:00,15.6,7.3,29.99,ENE,67,2.0,9.0,69,0.00,,,0.00,meteohub,2013-01-02 03:02:00,
2013-01-01 22:07:00,15.6,7.3,30.00,ESE,108,2.0,9.0,69,0.00,,,0.00,meteohub,2013-01-02 03:07:00,
2013-01-01 22:12:00,15.6,7.3,30.00,NNE,25,3.0,9.0,69,0.00,,,0.00,meteohub,2013-01-02 03:12:00,
2013-01-01 22:17:00,15.6,7.3,30.00,ENE,73,0.0,12.0,69,0.00,,,0.00,meteohub,2013-01-02 03:17:00,
2013-01-01 22:22:00,15.6,7.3,30.00,East,81,0.0,12.0,69,0.00,,,0.00,meteohub,2013-01-02 03:22:00,
2013-01-01 22:27:00,15.4,7.3,30.00,ENE,76,4.0,12.0,70,0.00,,,0.00,meteohub,2013-01-02 03:27:00,
2013-01-01 22:32:00,15.3,7.2,30.01,ENE,73,0.0,11.0,70,0.00,,,0.00,meteohub,2013-01-02 03:32:00,
2013-01-01 22:37:00,15.3,7.5,30.01,ENE,71,1.0,6.0,71,0.00,,,0.00,meteohub,2013-01-02 03:37:00,
2013-01-01 22:42:00,15.3,7.5,30.00,ENE,65,2.0,7.0,71,0.00,,,0.00,meteohub,2013-01-02 03:42:00,
2013-01-01 22:47:00,15.1,7.3,30.00,NE,49,4.0,9.0,71,0.00,,,0.00,meteohub,2013-01-02 03:47:00,
2013-01-01 22:52:00,15.3,7.9,30.00,NE,47,2.0,9.0,72,0.00,,,0.00,meteohub,2013-01-02 03:52:00,
2013-01-01 22:57:00,15.1,7.7,30.01,East,89,0.0,9.0,72,0.00,,,0.00,meteohub,2013-01-02 03:57:00,
2013-01-01 23:02:00,15.1,7.7,30.00,ENE,67,1.0,11.0,72,0.00,,,0.00,meteohub,2013-01-02 04:02:00,
2013-01-01 23:07:00,15.1,7.7,30.00,ENE,71,0.0,11.0,72,0.00,,,0.00,meteohub,2013-01-02 04:07:00,
2013-01-01 23:12:00,15.1,7.7,30.01,ENE,69,1.0,8.0,72,0.00,,,0.00,meteohub,2013-01-02 04:12:00,
2013-01-01 23:17:00,14.9,7.5,30.01,ENE,72,1.0,4.0,72,0.00,,,0.00,meteohub,2013-01-02 04:17:00,
2013-01-01 23:22:00,14.9,7.9,30.01,East,87,0.0,4.0,73,0.00,,,0.00,meteohub,2013-01-02 04:22:00,
2013-01-01 23:27:00,14.9,7.9,30.01,ENE,74,0.0,4.0,73,0.00,,,0.00,meteohub,2013-01-02 04:27:00,
2013-01-01 23:32:00,14.7,7.7,30.02,NE,54,0.0,3.0,73,0.00,,,0.00,meteohub,2013-01-02 04:32:00,
2013-01-01 23:37:00,14.7,7.7,30.01,NW,319,0.0,4.0,73,0.00,,,0.00,meteohub,2013-01-02 04:37:00,
2013-01-01 23:42:00,14.4,7.3,30.01,WSW,241,0.0,4.0,73,0.00,,,0.00,meteohub,2013-01-02 04:42:00,
2013-01-01 23:47:00,14.2,7.3,30.01,SE,129,0.0,4.0,74,0.00,,,0.00,meteohub,2013-01-02 04:47:00,
2013-01-01 23:52:00,13.8,7.3,30.01,WSW,244,3.0,4.0,75,0.00,,,0.00,meteohub,2013-01-02 04:52:00,
2013-01-01 23:57:00,14.0,7.5,30.01,SW,235,2.0,4.0,75,0.00,,,0.00,meteohub,2013-01-02 04:57:00,